Location: Wellington
(37.2653°N, 97.3717°W)
Time: 06:05:34
(UTC+00:00)

Daily predictions for brighter satellites

Satellite Brightness Start Highest point End
(mag) Time Altitude Azimuth Time Altitude Azimuth Time Altitude Azimuth
Cosmos 2237 Rocket 4.1 12:06:50 11° NW 12:06:50 11° NW 12:07:29 10° NW
Cosmos 2278 Rocket 3.9 12:07:17 12° WSW 12:07:17 12° WSW 12:08:52 10° WSW
Cosmos 1025 Rocket 3.3 12:04:13 10° S 12:08:32 74° E 12:12:53 10° N
Cosmos 2297 3.9 12:08:32 10° NNW 12:14:11 76° ENE 12:19:47 10° SSE
Cosmos 1674 Rocket 3.5 12:10:08 10° SSW 12:14:30 64° W 12:18:54 10° N
Cosmos 1943 3.2 12:09:35 10° SSW 12:15:12 89° WNW 12:20:50 10° NNE
Lacrosse 5 rocket 3.7 12:15:04 10° NNE 12:15:15 10° NNE 12:15:26 10° NE
SWARM A 4.4 12:13:24 10° SSW 12:16:35 46° W 12:19:47 10° NNW
Cosmos 1484 Rocket 2.4 12:14:11 10° N 12:17:43 79° WNW 12:21:12 10° SSW
Cosmos 1072 Rocket 4.5 12:12:38 10° N 12:18:48 87° W 12:25:00 10° S
USA 229 DEB 3.9 12:13:29 10° WSW 12:18:56 40° NW 12:24:59 10° NNE
Cosmos 2369 Rocket 2.3 12:13:22 10° NNW 12:19:06 87° ENE 12:24:48 10° SSE
USA 229 3.8 12:13:42 10° WSW 12:19:08 40° NW 12:25:12 10° NNE
Cosmos 1400 Rocket 2.5 12:15:45 10° NNW 12:19:25 75° W 12:23:02 10° S
BREEZE-M DEB (TANK) 1.9 12:17:58 10° SW 12:20:26 89° E 12:23:02 10° NE
Helios 1A Rocket 3.0 12:19:11 10° SSW 12:22:19 36° W 12:25:28 10° NNW
IRS-1D 4.2 12:18:15 10° N 12:22:25 28° WNW 12:26:34 10° SW
USA 267 4.4 12:18:05 10° NNE 12:23:09 25° NNW 12:28:13 10° WNW
Cosmos 1869 4.4 12:21:46 10° NW 12:24:13 19° W 12:26:44 10° SW
Cosmos 2221 Rocket 3.6 12:21:47 10° S 12:26:17 77° W 12:30:50 10° N
Lacrosse 4 Rocket 4.0 12:24:31 10° NNE 12:26:27 13° NE 12:28:22 10° E
Cosmos 1812 3.3 12:26:07 10° NW 12:28:21 20° W 12:30:34 10° SW
Cosmos 371 Rocket 4.2 12:25:21 10° NW 12:29:29 29° W 12:33:36 10° SSW
Cosmos 968 Rocket 3.5 12:28:32 10° NNW 12:33:45 69° WSW 12:38:56 10° S
Cosmos 1455 Rocket 4.5 12:33:04 10° N 12:37:12 42° E 12:41:20 10° SSE
Cosmos 2151 Rocket 3.8 12:33:39 10° NNW 12:37:59 49° W 12:42:14 10° SSW
Cosmos 1741 Rocket 4.1 12:32:55 10° NNW 12:38:15 87° WSW 12:43:32 10° SSE
ATLAS 3B R/B 3.6 12:33:21 10° WSW 12:40:07 35° NW 12:47:12 10° NNE
deb Kosmos-1261 4.2 12:40:58 10° SW 12:43:27 50° NW 12:46:11 10° NNE
Cosmos 1302 Rocket 3.9 12:40:26 10° SSW 12:45:34 76° WNW 12:50:47 10° NNE
Sich 1 Rocket 3.6 12:41:12 10° NNW 12:45:41 66° W 12:50:05 10° S
CENTAUR R/B 3.5 12:38:46 10° NW 12:47:31 83° WSW 12:57:03 10° SSE
USA 215 3.5 23:37:04 10° ESE 23:43:21 52° NE 23:49:39 10° NW
Helios 1A Rocket 4.5 23:44:41 10° ENE 23:45:52 11° E 23:47:02 10° ESE
UNK 3.8 23:41:28 10° NNE 23:46:06 85° WNW 23:50:41 10° SSW
IGS 5A 3.6 23:46:14 10° S 23:50:11 77° W 23:54:11 10° NNW
SAR-Lupe-4 3.6 23:48:56 10° SSE 23:52:25 55° ENE 23:55:56 10° N
RESURS DK-1 4.0 23:52:12 10° NNE 23:54:23 14° NE 23:56:35 10° E
